Home > Weather > Birmingham > Past weeks

Flag for United Kingdom Past Weather in Birmingham, England, United Kingdom — Yesterday and Last 2 Weeks

Now
55 °F

Clear.


Feels Like: 54 °F
Forecast: 54 / 60 °F
Wind: 7 mph from Northwest

Location: Birmingham / Airport

Current Time: Jul 31, 2016 at 2:46:48 AM

Latest Report: Jul 31, 2016 at 2:20 AM


Visibility: 10 mi

Pressure: 30.01 "Hg

Humidity: 82%

Dew Point: 50 °F

Location of BirminghamLocation

Past Weather in Birmingham — Graph

°F

Birmingham Temperature Yesterday

Maximum temperature yesterday: 68 °F (at 4:50 PM)
Minimum temperature yesterday: 54 °F (at 4:50 AM)
Average temperature yesterday: 61 °F

High & Low Weather Summary for the Past Weeks

 TemperatureHumidityPressure
High88 °F (Jul 19, 2:20 PM)100% (Jul 16, 11:50 PM)30.24 "Hg (Jul 16, 11:50 PM)
Low54 °F (Jul 18, 3:20 AM)36% (Jul 17, 7:20 PM)29.68 "Hg (Jul 20, 7:50 AM)
Average67 °F73%30.03 "Hg
* Reported Jul 16 1:20 AM — Jul 31 1:20 AM, Birmingham, Weather by CustomWeather, © 2016

Note: Actual official high and low records may vary slightly from our data, if they occured in-between our weather recording intervals... More about our weather records

Advertising

Birmingham Weather History for the Previous 24 Hours

Scroll right to see more
 ConditionsComfort  
Time TempWeatherWind HumidityBarometerVisibility
1:20 AM
Sun, Jul 31
57 °FClear.6 mph72%30.01 "Hg10 mi
12:50 AM55 °FClear.5 mph77%30.01 "Hg10 mi
12:20 AM57 °FClear.5 mph72%30.01 "Hg10 mi
11:50 PM
Sat, Jul 30
57 °FClear.7 mph72%30.01 "Hg10 mi
11:20 PM57 °FClear.8 mph72%30.01 "Hg10 mi
10:50 PM57 °FClear.8 mph72%30.01 "Hg10 mi
10:20 PM59 °FClear.7 mph72%29.98 "Hg10 mi
9:50 PM61 °FSunny.10 mph68%29.98 "Hg10 mi
9:20 PM61 °FSunny.8 mph68%29.98 "Hg10 mi
8:50 PM63 °FPassing clouds.9 mph64%29.98 "HgN/A
8:20 PM64 °FPassing clouds.10 mph60%29.98 "HgN/A
7:50 PM64 °FScattered clouds.12 mph60%29.95 "HgN/A
7:20 PM66 °FScattered clouds.13 mph56%29.95 "HgN/A
6:50 PM66 °FPassing clouds.10 mph56%29.95 "HgN/A
6:20 PM66 °FPassing clouds.9 mph52%29.95 "HgN/A
5:50 PM68 °FScattered clouds.13 mph49%29.95 "HgN/A
5:20 PM66 °FScattered clouds.12 mph52%29.95 "HgN/A
4:50 PM68 °FScattered clouds.7 mph49%29.95 "HgN/A
4:20 PM66 °FScattered clouds.9 mph52%29.95 "HgN/A
3:50 PM66 °FPartly sunny.12 mph52%29.95 "HgN/A
3:20 PM66 °FScattered clouds.7 mph52%29.95 "HgN/A
2:50 PM66 °FScattered clouds.10 mph52%29.95 "HgN/A
2:20 PM66 °FScattered clouds.10 mph52%29.95 "HgN/A
1:50 PM66 °FScattered clouds.12 mph56%29.95 "HgN/A
1:20 PM66 °FPartly sunny.10 mph56%29.95 "HgN/A
12:50 PM66 °FPartly sunny.10 mph60%29.95 "HgN/A
12:20 PM66 °FPartly sunny.9 mph60%29.95 "HgN/A
11:50 AM64 °FPartly sunny.9 mph60%29.95 "HgN/A
11:20 AM64 °FPartly sunny.9 mph64%29.95 "HgN/A
10:50 AM63 °FPartly sunny.12 mph68%29.95 "HgN/A
10:20 AM63 °FScattered clouds.13 mph68%29.95 "HgN/A
9:50 AM63 °FPassing clouds.13 mph68%29.95 "HgN/A
9:20 AM61 °FPassing clouds.13 mph72%29.95 "HgN/A
8:50 AM61 °FPassing clouds.10 mph77%29.95 "HgN/A
8:20 AM59 °FPassing clouds.9 mph82%29.95 "HgN/A
7:50 AM57 °FPassing clouds.9 mph88%29.92 "HgN/A
7:20 AM57 °FPassing clouds.6 mph82%29.92 "HgN/A
6:50 AM55 °FPassing clouds.6 mph88%29.92 "HgN/A
6:20 AM55 °FPassing clouds.6 mph88%29.92 "HgN/A
5:50 AM55 °FPassing clouds.5 mph88%29.92 "HgN/A
5:20 AM55 °FPassing clouds.6 mph88%29.92 "HgN/A
4:50 AM54 °FPassing clouds.3 mph94%29.92 "HgN/A
4:20 AM55 °FPassing clouds.6 mph88%29.92 "HgN/A
3:50 AM55 °FPassing clouds.5 mph94%29.92 "HgN/A
3:20 AM55 °FPassing clouds.6 mph94%29.92 "HgN/A
2:20 AM55 °FClear.7 mph94%29.92 "Hg10 mi
Weather by CustomWeather, © 2016

See weather overviewHow to use our weather pages